TimeEST,TemperatureF,Dew PointF,Humidity,Sea Level PressureIn,VisibilityMPH,Wind Direction,Wind SpeedMPH,Gust SpeedMPH,PrecipitationIn,Events,Conditions,WindDirDegrees,DateUTC
12:53 AM,68.0,64.0,87,30.07,10.0,Calm,Calm,-,N/A,,Clear,0,2012-02-17 05:53:00
1:53 AM,68.0,64.0,87,30.05,10.0,SW,3.5,-,N/A,,Clear,220,2012-02-17 06:53:00
2:53 AM,69.1,64.9,87,30.04,10.0,Calm,Calm,-,N/A,,Clear,0,2012-02-17 07:53:00
3:53 AM,66.0,64.0,93,30.04,10.0,Calm,Calm,-,N/A,,Clear,0,2012-02-17 08:53:00
4:53 AM,66.0,63.0,90,30.04,10.0,Calm,Calm,-,N/A,,Clear,0,2012-02-17 09:53:00
5:53 AM,66.0,64.0,93,30.04,10.0,ESE,3.5,-,N/A,,Partly Cloudy,120,2012-02-17 10:53:00
6:17 AM,66.2,64.4,94,30.04,10.0,SE,3.5,-,N/A,,Mostly Cloudy,130,2012-02-17 11:17:00
6:53 AM,66.0,64.0,93,30.06,10.0,South,3.5,-,N/A,,Mostly Cloudy,170,2012-02-17 11:53:00
7:53 AM,69.1,64.9,87,30.08,10.0,South,4.6,-,N/A,,Overcast,190,2012-02-17 12:53:00
8:53 AM,71.1,64.9,81,30.07,10.0,South,9.2,-,N/A,,Overcast,180,2012-02-17 13:53:00
9:27 AM,71.6,64.4,78,30.08,10.0,SSW,8.1,-,N/A,,Partly Cloudy,210,2012-02-17 14:27:00
9:53 AM,72.0,64.9,78,30.08,10.0,South,8.1,-,N/A,,Mostly Cloudy,190,2012-02-17 14:53:00
10:53 AM,73.0,64.9,76,30.07,10.0,South,9.2,-,N/A,,Mostly Cloudy,190,2012-02-17 15:53:00
11:53 AM,73.0,64.9,76,30.07,10.0,SSW,8.1,-,N/A,,Overcast,210,2012-02-17 16:53:00
12:53 PM,73.0,64.9,76,30.05,10.0,SSW,6.9,-,N/A,,Overcast,210,2012-02-17 17:53:00
1:16 PM,75.2,66.2,73,30.04,10.0,SW,6.9,-,N/A,,Scattered Clouds,220,2012-02-17 18:16:00
1:44 PM,73.4,64.4,73,30.03,10.0,SW,8.1,-,N/A,,Mostly Cloudy,220,2012-02-17 18:44:00
1:53 PM,73.0,64.9,76,30.04,10.0,SW,8.1,-,N/A,,Overcast,220,2012-02-17 18:53:00
2:53 PM,72.0,66.0,81,30.03,10.0,SW,5.8,-,N/A,,Overcast,220,2012-02-17 19:53:00
3:53 PM,73.4,66.2,78,30.02,10.0,WSW,5.8,-,N/A,,Mostly Cloudy,250,2012-02-17 20:53:00
4:00 PM,71.6,66.2,83,30.02,10.0,WSW,5.8,-,N/A,,Mostly Cloudy,250,2012-02-17 21:00:00
4:53 PM,72.0,64.9,78,30.02,10.0,West,4.6,-,N/A,,Overcast,260,2012-02-17 21:53:00
5:53 PM,71.1,64.9,81,30.01,10.0,Calm,Calm,-,N/A,,Overcast,0,2012-02-17 22:53:00
6:53 PM,71.1,64.9,81,29.99,10.0,South,5.8,-,N/A,,Overcast,180,2012-02-17 23:53:00
7:53 PM,70.0,66.0,87,30.03,10.0,West,5.8,-,N/A,,Overcast,270,2012-02-18 00:53:00
8:53 PM,69.1,66.0,90,30.02,10.0,Calm,Calm,-,N/A,,Overcast,0,2012-02-18 01:53:00
9:53 PM,69.1,64.9,87,30.02,10.0,Calm,Calm,-,N/A,,Overcast,0,2012-02-18 02:53:00
10:53 PM,69.8,64.4,83,30.03,10.0,Calm,Calm,-,N/A,,Mostly Cloudy,0,2012-02-18 03:53:00
11:53 PM,69.1,66.0,90,30.03,10.0,Calm,Calm,-,N/A,,Overcast,0,2012-02-18 04:53:00